Location: Brookfield Center
(41.2406°N, 80.5579°W)
Time: 01:19:10
(UTC+00:00)

Nadezhda 1 Rocket - Pass Details

Date: 18 January 2020
Orbit: 942 x 1004 km, 83.0° (Epoch: 28 February)

Event Time Altitude Azimuth Distance (km) Brightness Sun altitude
Rises 10:05:40 0° 173° (S) 3,610 7.1 -29.5°
Reaches altitude 10° 10:08:12 10° 169° (S) 2,663 6.4 -29.0°
Maximum altitude 10:14:07 57° 92° (E) 1,098 4.5 -27.9°
Drops below altitude 10° 10:20:03 10° 15° (NNE) 2,668 6.4 -26.8°
Sets 10:22:35 0° 12° (NNE) 3,618 7.1 -26.3°
